Location: Balâtre
(49.7097°N, 2.8654°E)
Time: 17:25:26
(UTC+00:00)

Daily predictions for brighter satellites

Satellite Brightness Start Highest point End
(mag) Time Altitude Azimuth Time Altitude Azimuth Time Altitude Azimuth
Cosmos 1802 Rocket 4.3 17:27:38 10° N 17:34:04 83° W 17:40:31 10° S
Cosmos 2285 Rocket 4.2 17:30:02 10° NNW 17:36:22 56° ENE 17:42:38 10° SE
Cosmos 2233 Rocket 4.0 17:30:42 10° N 17:36:58 69° ENE 17:43:16 10° SSE
CZ-4 R/B 4.4 17:33:39 10° SSE 17:37:33 60° ENE 17:41:29 10° N
USA 290 2.4 17:34:26 10° SSW 17:37:37 74° WNW 17:40:49 10° NNE
NOSS 0 Rocket 4.0 17:32:41 10° NNW 17:38:59 81° ENE 17:45:13 10° SSE
USA 306 3.7 17:37:43 10° WNW 17:40:25 28° SW 17:42:21 10° SSE
ARIANE 6 FM1 Upper Stage 4.2 17:38:57 10° NNW 17:41:53 19° NNE 17:44:49 10° ENE
SMAP 4.4 17:38:09 10° S 17:42:37 45° W 17:47:06 10° NNW
Thor Agena Rocket 4.4 17:38:59 10° S 17:43:57 55° WSW 17:49:03 10° NNW
NOSS 3-4 (A) 3.9 17:38:18 10° NW 17:44:41 55° NE 17:52:12 10° ESE
NOSS 3-4 (C) 3.9 17:38:34 10° NW 17:44:58 55° NE 17:52:29 10° ESE
IRS-1C 4.5 17:40:19 10° S 17:45:38 73° WSW 17:50:59 10° NNW
Cosmos 1725 Rocket 4.3 17:39:29 10° NNW 17:45:44 76° W 17:52:00 10° S
Cosmos 2151 Rocket 3.7 17:44:58 10° N 17:49:30 88° W 17:54:00 10° S
Meteor 1-11 4.2 17:46:27 10° S 17:52:04 84° E 17:57:51 10° NNE
Radarsat Rocket 4.1 17:49:32 10° SE 17:55:18 61° ENE 18:01:36 10° NNW
Cosmos 1607 4.0 17:49:18 10° SW 17:55:27 85° NW 18:01:42 10° NE
Cosmos 1455 Rocket 3.5 17:53:04 10° N 17:57:06 38° ENE 18:01:07 10° SE
Cosmos 44 Rocket 4.3 17:55:03 10° S 17:59:10 27° ESE 18:03:11 11° ENE
YAOGAN 1 2.5 17:55:25 10° SSE 17:59:38 71° ENE 18:03:54 10° N
Cosmos 1975 Rocket 4.3 17:56:42 10° SE 17:59:55 21° E 18:03:07 10° NE
Cosmos 2228 4.0 17:56:28 10° NNE 17:59:56 24° ENE 18:03:23 10° SE
PSLV R/B 3.7 17:56:32 10° SE 18:00:28 46° ENE 18:04:24 10° N
COSMO-SKYMED 1 2.8 17:56:39 10° NNE 18:00:35 41° E 18:04:28 10° S
ATLAS 2AS CENTAUR R/B 4.0 17:54:53 10° W 18:00:53 30° NNW 18:06:48 10° NE
Cosmos 1782 4.1 17:59:18 10° NNE 18:01:43 17° ENE 18:03:12 14° E
Cosmos 2297 Rocket 2.4 17:56:29 10° S 18:01:55 49° ESE 18:07:22 10° NE
Lacrosse 5 rocket 2.1 18:00:02 10° W 18:03:17 35° NNW 18:06:24 11° NE
DNEPR-1 R/B 4.3 18:00:06 10° NNW 18:04:38 44° NE 18:09:59 10° ESE
SPOT 1/Viking Rocket 4.0 18:01:34 10° S 18:06:39 65° WSW 18:11:46 10° NNW
Cosmos 2061 Rocket 4.1 18:01:01 10° N 18:07:26 85° W 18:13:44 10° S
Aureole 3 Rocket 2.5 18:03:38 10° N 18:07:37 62° ENE 18:10:49 10° SSE
CZ-2D R/B 3.2 18:05:34 10° SSE 18:09:28 76° ENE 18:13:30 10° N
Meteor 2-1 Rocket 4.5 18:04:02 10° NNW 18:09:52 82° W 18:15:46 10° S
Okean 1 Rocket 3.2 18:08:06 10° NNW 18:12:31 79° W 18:16:51 10° S
SL-16 R/B 4.3 18:07:22 10° N 18:12:45 32° WNW 18:18:09 10° WSW
CZ-4C R/B 2.1 18:08:48 10° SW 18:13:07 70° NW 18:18:43 10° NE
Cosmos 1464 Rocket 4.3 18:10:49 10° N 18:16:54 44° ENE 18:22:53 10° SE
Okean 2 Rocket 3.7 18:13:24 10° NNW 18:17:45 60° W 18:22:02 10° S
Cosmos 2344 4.3 18:13:03 10° SSE 18:19:25 27° ESE 18:23:43 16° ENE
Cosmos 2221 Rocket 3.6 18:15:33 10° S 18:20:01 88° W 18:24:34 10° N
USA 267 3.5 18:15:08 11° ENE 18:21:24 71° NNW 18:27:54 10° WSW
SJ-6B 3.0 18:21:10 10° SE 18:24:21 37° ENE 18:27:34 10° N
Cosmos 1980 4.0 18:24:31 10° NNW 18:30:11 73° WSW 18:35:48 10° SSE
Cosmos 2263 Rocket 3.2 18:26:10 10° SSE 18:30:32 23° ESE 18:31:44 22° E
Cosmos 1025 Rocket 3.8 18:26:25 10° SSW 18:30:39 54° WNW 18:34:56 10° N
Sich 1 Rocket 4.5 18:28:17 10° NNW 18:32:44 53° W 18:37:10 10° S
Cosmos 2237 Rocket 2.5 18:29:48 10° NNW 18:35:28 72° WSW 18:41:07 10° SSE
Meteor 1-31 Rocket 3.8 18:36:36 23° NE 18:36:36 23° NE 18:38:44 10° N
SKYMED 2 4.5 18:32:58 10° N 18:37:12 51° WNW 18:41:24 10° SW
Meteor 1-27 4.2 18:32:10 10° NNW 18:37:59 87° ENE 18:43:50 10° S
SeaSat 1 4.3 18:37:50 10° S 18:42:12 32° WSW 18:46:36 10° NW
Cosmos 1570 Rocket 3.9 18:37:56 10° SSW 18:43:13 82° ESE 18:48:30 10° NNE
Resurs 01 Rocket 1.6 18:39:16 10° SSE 18:43:39 89° WSW 18:48:07 10° NNW
SPOT 5 3.3 18:45:52 26° ESE 18:48:04 40° ENE 18:52:49 10° N
NOSS 3-3 (C) 4.2 18:44:43 10° WSW 18:50:02 62° NW 18:55:59 12° NE
DMSP B5D1-3 4.4 18:47:52 10° NNE 18:53:00 80° ESE 18:58:07 10° SSW
Tiangong 0.0 18:53:41 10° SW 18:55:41 17° S 18:55:41 17° S
Cosmos 2227 Rocket 2.1 18:55:37 10° SSW 19:01:10 62° ESE 19:05:16 19° NE
SL-16 R/B 2.2 18:55:47 10° NNW 19:01:25 61° ENE 19:03:59 32° SE
Cosmos 773 Rocket 4.0 18:58:50 10° SSW 19:04:06 87° WNW 19:09:26 10° NNE
Cosmos 1346 Rocket 3.5 19:00:40 10° S 19:02:49 33° SSE 19:02:49 33° SSE
Cosmos 2208 Rocket 3.9 18:59:05 10° SSW 19:04:19 88° ESE 19:09:41 10° NNE
Tsikada Rocket 4.3 19:02:26 10° SSE 19:08:05 40° E 19:13:46 10° NNE
CZ-4 R/B 2.7 19:17:56 25° N 19:17:56 25° N 19:19:43 10° N
Okean O Rocket 4.0 19:20:31 11° NNE 19:20:31 11° NNE 19:20:43 10° NNE
ARIANE 6 FM1 Upper Stage 2.8 19:17:37 10° NW 19:21:05 59° N 19:21:05 59° N
CZ-4B R/B 3.5 19:26:08 45° NE 19:26:08 45° NE 19:30:39 10° N
Terra 3.2 19:30:49 25° NNE 19:30:49 25° NNE 19:33:03 10° N
Cosmos 1544 Rocket 3.4 19:25:26 10° N 19:29:48 86° W 19:30:03 79° SSW
Cosmos 1816 Rocket 4.5 19:24:00 10° S 19:30:09 83° W 19:36:26 10° N
CZ-4B DEB 4.0 19:29:06 54° SE 19:30:18 71° ENE 19:35:45 10° NNW
CSL-04 Debris 4.0 19:30:41 35° SSE 19:33:06 88° ENE 19:38:34 10° NNW
BREEZE-M (TANK) 4.5 19:29:57 10° W 19:33:06 33° SSW 19:36:14 23° SSE
Cosmos 2034 Rocket 4.0 19:28:37 10° N 19:34:49 81° W 19:41:01 10° S
Cosmos 1782 3.8 19:33:16 10° NNW 19:36:39 40° W 19:37:19 36° WSW
Cosmos 2228 4.4 19:33:09 10° NNW 19:37:00 36° W 19:40:51 10° SSW
Cosmos 1975 Rocket 4.1 19:33:09 10° SSW 19:37:19 45° WNW 19:41:30 10° N
TSX-5 4.1 19:32:18 10° NNW 19:37:23 82° N 19:37:23 82° N
CSL-04 Rocket 3.6 19:35:11 32° S 19:37:45 80° WSW 19:43:03 10° NNW
RESURS DK-1 4.3 19:34:17 10° NNW 19:35:40 19° N 19:35:40 19° N
Cosmos 44 Rocket 3.8 19:35:22 10° SW 19:40:16 58° NW 19:41:49 40° NNE
Lacrosse 5 rocket 3.1 19:37:48 10° NW 19:39:50 22° NNW 19:39:50 22° NNW
MOS 1 4.2 19:41:22 66° ENE 19:41:22 66° ENE 19:46:57 10° N
Cosmos 1634 Rocket 3.9 19:35:55 10° N 19:42:14 69° ENE 19:43:02 62° ESE
Cosmos 2297 Rocket 3.6 19:40:58 10° WSW 19:46:08 35° NW 19:51:21 10° NNE
Cosmos 1943 3.5 19:43:43 10° NNW 19:48:32 51° NNE 19:48:32 51° NNE
ATLAS 2AS CENTAUR R/B 4.0 19:48:16 10° NW 19:53:52 26° N 19:55:21 24° NNE
BREEZE-M DEB (TANK) 3.8 19:38:17 10° W 19:55:35 69° S 19:56:30 62° SE
ERS-1 Rocket 3.9 20:02:09 40° N 20:02:09 40° N 20:05:22 10° NNW
CZ-4C R/B 3.8 19:58:14 10° WNW 20:02:25 26° NNW 20:04:22 22° NNE
BREEZE-M DEB (TANK) 4.2 19:58:02 10° SW 20:02:53 63° SE 20:04:47 53° E
Cosmos 972 Rocket 4.4 19:58:52 10° NNW 20:02:46 56° NNW 20:02:46 56° NNW
USA 267 3.8 20:02:29 41° NNE 20:03:59 48° N 20:10:12 10° WNW
Cosmos 2279 Rocket 4.2 19:58:27 10° N 20:03:21 54° NNE 20:03:21 54° NNE
Cosmos 2263 Rocket 2.5 20:08:16 10° SW 20:13:31 65° W 20:13:31 65° W
ADEOS 4.5 20:23:44 45° NW 20:23:44 45° NW 20:27:31 10° NNW
Cosmos 2344 3.5 20:25:25 10° SW 20:33:02 73° NW 20:33:48 68° N
SL-16 R/B 3.9 20:40:31 10° NW 20:45:06 26° WSW 20:45:52 25° WSW
Cosmos 2227 Rocket 3.9 20:40:40 10° WSW 20:45:36 30° NW 20:47:09 26° NNW
ATLAS 2AS CENTAUR R/B 4.4 21:39:53 10° NW 21:42:45 25° NNW 21:42:45 25° NNW
